Location: Marcé
(47.5801°N, 0.3280°W)
Time: 12:48:10
(UTC+01:00)

Explorer 7 - Pass Details

Date: 16 December 2021
Orbit: 483 x 674 km, 50.3° (Epoch: 19 January)

Event Time Altitude Azimuth Distance (km) Brightness Sun altitude
Exits shadow 05:27:27 25° 77° (ENE) 1,174 9.0 -31.9°
Drops below altitude 10° 05:29:18 10° 85° (E) 1,849 10.4 -31.6°
Sets 05:31:30 0° 89° (E) 2,711 11.5 -31.2°
